Regional Weather Roundup
Issued by NWS Goodland, KS

Home | Current Version | Previous Version | Text Only | Print | Product List | Glossary Off
Versions: 1 2 3 4 5 6 7 8 9 10 11 12 13 14 15 16 17 18 19 20 21 22 23 24 25 26 27 28 29 30 31 32 33 34 35 36 37 38 39 40 41 42 43 44 45 46 47 48 49 50

262
ASUS43 KGLD 111408
RWRGLD

GOODLAND FORECAST AREA HOURLY WEATHER ROUNDUP
NATIONAL WEATHER SERVICE GOODLAND KS
700 AM MST THU FEB 11 2016

...OFFICIAL OBSERVATIONS...

CITY           SKY/WX    TMP DP  RH WIND       PRES   REMARKS
GOODLAND KS    CLOUDY    29  22  75 W7        30.14F
HILL CITY KS   CLOUDY    27  25  92 SE3       30.22S FOG
IMPERIAL NEB   PTCLDY    25  21  85 CALM      30.12F
MCCOOK NEB     FOG       22  21  96 SE6       30.17S VSB 1/4
AKRON CO       CLOUDY    39  20  46 SW15      30.12F
BURLINGTON CO  CLOUDY    29  21  72 SW10      30.15F WCI  20
LIMON CO       CLOUDY    23  14  68 N8        30.18F
$$

...UNOFFICIAL OBSERVATIONS...

CITY           SKY/WX    TMP DP  RH WIND       PRES   REMARKS
GOVE KS          N/A     23  32 100 MISG        N/A
LENORA KS        N/A     26  32 100 MISG        N/A
NORTON KS      CLOUDY    28  25  86 SE6       30.19S FOG
SHARON SPRINGS   N/A     26  22  86 CALM        N/A
KIT CARSON CO    N/A     27  20  76 MISG        N/A
YUMA CO          N/A     32  25  74 CALM        N/A
$$




USA.gov is the U.S. government's official web portal to all federal, state and local government web resources and services.